Location: Palmerston North
(40.3500°S, 175.6170°E)
Time: 04:29:42
(UTC+13:00)

Cosmos 292 Rocket - Pass Details

Date: 24 January 2019
Orbit: 673 x 695 km, 74.0° (Epoch: 21 February)

Event Time Altitude Azimuth Distance (km) Brightness Sun altitude
Rises 21:36:07 0° 204° (SSW) 3,062 8.3 -9.4°
Reaches altitude 10° 21:38:28 10° 208° (SSW) 2,141 7.4 -9.8°
Maximum altitude 21:43:10 56° 285° (WNW) 818 4.4 -10.5°
Drops below altitude 10° 21:47:50 10° 2° (N) 2,122 5.9 -11.2°
Enters shadow 21:49:06 - 5° (N) 2,610 6.4 -11.4°
